Weather History for KBIE - January, 2009

Change the Weather History Date:

Tuesday, January 13, 2009

  Actual Average Record
Temperature  
Mean Temperature 18 °F -  
Max Temperature 35 °F 35 °F 58 °F (1980)
Min Temperature 3 °F 12 °F -11 °F (1964)
Degree Days  
Heating Degree Days 47    
Moisture  
Dew Point 3 °F    
Average Humidity 57    
Maximum Humidity 85    
Minimum Humidity 39    
Precipitation  
Precipitation 0.00 in - - ()
Sea Level Pressure  
Sea Level Pressure 30.19 in    
Wind  
Wind Speed 10 mph (South)    
Max Wind Speed 20 mph    
Max Gust Speed 25 mph    
Visibility 10 miles    
Events      
Averages and records for this station are not official NWS values.
T = Trace of Precipitation, MM = Missing Value Source: NWS Daily Summary

Daily Weather History Graph

Daily Weather History Graph

Search for Another Location

Airport or City:

Trip Planner

Search our weather history database for the weather conditions in past years. The results will help you decide how hot, cold, wet, or windy it might be!

Date:

Astronomy

Jan. 13, 2009 Rise Set
Actual Time 7:48 AM CST 5:23 PM CST
Civil Twilight 7:18 AM CST 5:53 PM CST
Nautical Twilight 6:44 AM CST 6:27 PM CST
Astronomical Twilight 6:12 AM CST 6:59 PM CST
Moon 8:50 PM CST (1/13) 9:28 AM CST (1/13)
Length of Visible Light 10h 35m
Length of Day
9h 35m
Waning Gibbous, 90% of the Moon is Illuminated
Jan 13
Waning Gibbous
Jan 17
Last Quarter
Jan 26
New
Feb 2
First Quarter
Feb 9
Full

Hourly Weather History & Observations

Time (CST) Temp. Windchill Dew Point Humidity Pressure Visibility Wind Dir Wind Speed Gust Speed Precip Events Conditions
12:10 AM 8.6 °F -7.0 °F -0.4 °F 67% 30.41 in 10.0 mi NNW 12.7 mph - N/A   Clear
12:30 AM 8.6 °F -5.5 °F -0.4 °F 67% 30.40 in 10.0 mi NNW 10.4 mph - N/A   Clear
12:50 AM 6.8 °F -10.7 °F -0.4 °F 72% 30.41 in 10.0 mi NNW 15.0 mph - N/A   Clear
1:10 AM 6.8 °F -9.3 °F -2.2 °F 67% 30.40 in 10.0 mi NNW 12.7 mph - N/A   Clear
1:30 AM 6.8 °F -8.6 °F -2.2 °F 67% 30.40 in 10.0 mi NNW 11.5 mph - N/A   Clear
1:50 AM 6.8 °F -4.8 °F -2.2 °F 67% 30.40 in 10.0 mi NW 6.9 mph - N/A   Clear
2:10 AM 6.8 °F -6.9 °F -0.4 °F 72% 30.41 in 10.0 mi NW 9.2 mph - N/A   Clear
2:30 AM 6.8 °F -7.8 °F -0.4 °F 72% 30.41 in 10.0 mi NW 10.4 mph - N/A   Clear
2:50 AM 6.8 °F -5.9 °F -0.4 °F 72% 30.41 in 10.0 mi NNW 8.1 mph - N/A   Clear
3:10 AM 6.8 °F -7.8 °F -0.4 °F 72% 30.40 in 10.0 mi NNW 10.4 mph - N/A   Clear
3:30 AM 5.0 °F -9.1 °F -0.4 °F 78% 30.40 in 10.0 mi NNW 9.2 mph - N/A   Clear
3:50 AM 5.0 °F -6.9 °F -0.4 °F 78% 30.40 in 10.0 mi NNW 6.9 mph - N/A   Clear
4:10 AM 5.0 °F -5.6 °F -0.4 °F 78% 30.40 in 10.0 mi NNW 5.8 mph - N/A   Clear
4:30 AM 5.0 °F - -2.2 °F 72% 30.38 in 10.0 mi Calm Calm - N/A   Clear
4:50 AM 5.0 °F - -2.2 °F 72% 30.38 in 10.0 mi Calm Calm - N/A   Clear
5:10 AM 5.0 °F - -2.2 °F 72% 30.37 in 10.0 mi Calm Calm - N/A   Scattered Clouds
5:30 AM 5.0 °F - -2.2 °F 72% 30.36 in 10.0 mi Calm Calm - N/A   Scattered Clouds
5:50 AM 3.2 °F - -2.2 °F 78% 30.35 in 10.0 mi Calm Calm - N/A   Clear
6:10 AM 5.0 °F - -2.2 °F 72% 30.32 in 10.0 mi Calm Calm - N/A   Clear
6:30 AM 5.0 °F - -0.4 °F 78% 30.32 in 10.0 mi Calm Calm - N/A   Clear
6:50 AM 5.0 °F - -2.2 °F 72% 30.33 in 10.0 mi Calm Calm - N/A   Clear
7:10 AM 3.2 °F - -2.2 °F 78% 30.33 in 10.0 mi Calm Calm - N/A   Clear
7:30 AM 3.2 °F -4.2 °F -2.2 °F 78% 30.35 in 10.0 mi SW 3.5 mph - N/A   Clear
7:50 AM 3.2 °F - -2.2 °F 78% 30.35 in 10.0 mi Calm Calm - N/A   Clear
8:10 AM 5.0 °F -2.1 °F -0.4 °F 78% 30.35 in 10.0 mi South 3.5 mph - N/A   Clear
8:30 AM 5.0 °F -2.1 °F 1.4 °F 85% 30.35 in 10.0 mi South 3.5 mph - N/A   Clear
9:10 AM 8.6 °F 0.1 °F -0.4 °F 67% 30.32 in 10.0 mi SSE 4.6 mph - N/A   Clear
9:30 AM 10.4 °F -0.4 °F -2.2 °F 57% 30.31 in 10.0 mi South 6.9 mph - N/A   Clear
9:50 AM 10.4 °F -2.4 °F -2.2 °F 57% 30.29 in 10.0 mi SSE 9.2 mph - N/A   Clear
10:10 AM 12.2 °F -0.2 °F -2.2 °F 53% 30.29 in 10.0 mi South 9.2 mph - N/A   Clear
10:30 AM 12.2 °F -1.0 °F -0.4 °F 57% 30.29 in 10.0 mi South 10.4 mph - N/A   Clear
10:50 AM 14.0 °F 2.9 °F 1.4 °F 57% 30.28 in 10.0 mi SSE 8.1 mph - N/A   Clear
11:10 AM 15.8 °F 4.2 °F 1.4 °F 53% 30.27 in 10.0 mi SSE 9.2 mph - N/A   Clear
11:30 AM 17.6 °F 5.7 °F 1.4 °F 49% 30.25 in 10.0 mi SSE 10.4 mph - N/A   Clear
11:50 AM 17.6 °F 6.4 °F 1.4 °F 49% 30.23 in 10.0 mi SSE 9.2 mph - N/A   Clear
12:10 PM 19.4 °F 6.6 °F 3.2 °F 49% 30.21 in 10.0 mi South 12.7 mph - N/A   Clear
12:30 PM 19.4 °F 7.2 °F 3.2 °F 49% 30.19 in 10.0 mi South 11.5 mph - N/A   Clear
12:50 PM 21.2 °F 10.1 °F 1.4 °F 42% 30.16 in 10.0 mi SSE 10.4 mph 13.8 mph N/A   Scattered Clouds
1:10 PM 21.2 °F 7.8 °F 1.4 °F 42% 30.13 in 10.0 mi South 15.0 mph - N/A   Mostly Cloudy
1:30 PM 23.0 °F 11.1 °F 1.4 °F 39% 30.11 in 10.0 mi South 12.7 mph 20.7 mph N/A   Overcast
1:50 PM 23.0 °F 9.2 °F 1.4 °F 39% 30.08 in 10.0 mi SSE 17.3 mph - N/A   Overcast
2:10 PM 24.8 °F 11.9 °F 3.2 °F 40% 30.07 in 10.0 mi South 16.1 mph - N/A   Overcast
2:30 PM 24.8 °F 12.4 °F 3.2 °F 40% 30.06 in 10.0 mi South 15.0 mph 21.9 mph N/A   Overcast
2:50 PM 26.6 °F 14.3 °F 5.0 °F 40% 30.05 in 10.0 mi South 16.1 mph - N/A   Overcast
3:10 PM 26.6 °F 14.7 °F 5.0 °F 40% 30.03 in 10.0 mi South 15.0 mph 23.0 mph N/A   Overcast
3:30 PM 28.4 °F 17.0 °F 6.8 °F 40% 30.02 in 10.0 mi South 15.0 mph 20.7 mph N/A   Mostly Cloudy
3:50 PM 28.4 °F 18.5 °F 6.8 °F 40% 30.01 in 10.0 mi South 11.5 mph 18.4 mph N/A   Mostly Cloudy
4:10 PM 30.2 °F 19.3 °F 8.6 °F 40% 29.99 in 10.0 mi South 15.0 mph 19.6 mph N/A   Scattered Clouds
4:30 PM 30.2 °F 19.8 °F 8.6 °F 40% 29.97 in 10.0 mi South 13.8 mph - N/A   Clear
4:50 PM 30.2 °F 20.8 °F 8.6 °F 40% 29.96 in 10.0 mi South 11.5 mph - N/A   Clear
5:10 PM 32.0 °F 22.5 °F 10.4 °F 41% 29.95 in 10.0 mi South 12.7 mph - N/A   Scattered Clouds
5:30 PM 32.0 °F 22.5 °F 12.2 °F 44% 29.94 in 10.0 mi South 12.7 mph - N/A   Scattered Clouds
5:50 PM 32.0 °F 24.2 °F 12.2 °F 44% 29.93 in 10.0 mi South 9.2 mph - N/A   Scattered Clouds
6:10 PM 32.0 °F 23.6 °F 12.2 °F 44% 29.92 in 10.0 mi South 10.4 mph - N/A   Scattered Clouds
6:30 PM 33.8 °F 25.3 °F 12.2 °F 41% 29.91 in 10.0 mi South 11.5 mph 17.3 mph N/A   Scattered Clouds
6:50 PM 33.8 °F 23.2 °F 12.2 °F 41% 29.90 in 10.0 mi South 17.3 mph 20.7 mph N/A   Clear
7:10 PM 33.8 °F 22.8 °F 14.0 °F 44% 29.88 in 10.0 mi South 18.4 mph 21.9 mph N/A   Clear
7:30 PM 33.8 °F 22.5 °F 14.0 °F 44% 29.87 in 10.0 mi South 19.6 mph 25.3 mph N/A   Clear
7:50 PM 33.8 °F 22.5 °F 14.0 °F 44% 29.86 in 10.0 mi South 19.6 mph 24.2 mph N/A   Scattered Clouds
8:10 PM 33.8 °F 23.5 °F 14.0 °F 44% 29.86 in 10.0 mi South 16.1 mph 24.2 mph N/A   Mostly Cloudy
8:30 PM 33.8 °F 23.2 °F 15.8 °F 48% 29.86 in 10.0 mi South 17.3 mph - N/A   Overcast
8:50 PM 35.6 °F 27.1 °F 15.8 °F 44% 29.85 in 10.0 mi SSW 12.7 mph 20.7 mph N/A   Scattered Clouds
9:10 PM 35.6 °F 25.9 °F 17.6 °F 48% 29.84 in 10.0 mi SSW 16.1 mph 23.0 mph N/A   Clear
9:30 PM 35.6 °F 26.6 °F 17.6 °F 48% 29.84 in 10.0 mi SSW 13.8 mph 19.6 mph N/A   Scattered Clouds
9:50 PM 35.6 °F 27.5 °F 17.6 °F 48% 29.84 in 10.0 mi SW 11.5 mph 17.3 mph N/A   Clear
10:10 PM 35.6 °F 30.7 °F 17.6 °F 48% 29.84 in 10.0 mi WSW 5.8 mph - N/A   Clear
10:30 PM 35.6 °F 30.7 °F 17.6 °F 48% 29.85 in 10.0 mi West 5.8 mph - N/A   Clear
10:50 PM 37.4 °F 29.8 °F 19.4 °F 48% 29.85 in 10.0 mi West 11.5 mph 18.4 mph N/A   Clear
11:10 PM 37.4 °F 30.8 °F 19.4 °F 48% 29.85 in 10.0 mi WSW 9.2 mph - N/A   Clear
11:30 PM 37.4 °F 30.3 °F 21.2 °F 52% 29.86 in 10.0 mi West 10.4 mph - N/A   Clear
11:50 PM 37.4 °F 31.4 °F 23.0 °F 56% 29.86 in 10.0 mi West 8.1 mph - N/A   Clear